COSMOS 1275 DEB, 18601

Orbit data source: Space-Track

COSMOS 1275 DEB, 18601 is space debris in LEO originally from a launch on Thu, 04 Jun 1981 UTC launched from the Plesetsk Missile And Space Complex (PKMTR). Debris objects in space refer to the collection of defunct objects orbiting the Earth. Examples of debris include non-operational satellites, rocket bodies, and fragments generated from explosions, collisions, or faulty payload assembly.

Loading next visibility...
Identifier
18601, 1981-053LW
Orbit
LEO
Country
Flag of CISCIS
Related business
Manufacturer
Unknown
Mission
Spacecraft
Bus & Motor
Unknown
Mass
Unknown
Launch date (UTC)
1981-06-04 (45 years ago)
Launch vehicle
Unknown
Launch site
Plesetsk Missile And Space Complex (PKMTR)
Object type
Payload
Rocket body
Debris
Shape & HBR
Unknown shape, 0.1 m
Radar Cross Section
Small (<0.1 m²)

Expand to show TLE details & history
Last TLE update: 23 hours ago

TLE from 23 hours ago
0 COSMOS 1275 DEB
1 18601U 81053LW  26094.91819416  .00006051  00000-0  26614-2 0  9996
2 18601  82.7797  76.6041 0053133   0.7958  28.2785 14.22613103970737
Epoch: 2026-04-04T22:02Z
TLE epoch observation values (Epoch: 2026-04-04T22:02:11.975Z)
Latitude
29.15712°
Longitude
-83.14546°
Altitude
786.564 km
Speed
7.481 km/s
True Right ascension
05h 22m 32s
True Declination
29° 00' 42"
Sunlit
Object was in daylight at epoch
Visualization orbit readout
Latitude
Unknown
Longitude
Unknown
Altitude
Unknown
Speed
Unknown
Apparent Right ascension
Unknown
Apparent Declination
Unknown
Sunlit
N/A
Visualization observer readout
Local Sidereal Time
03:00:07
Azimuth
Unknown
Elevation
Unknown
Doppler factor
Unknown
Orbital elements
Apogee altitude
851.83 km
Perigee altitude
775.407 km
Semi-major axis
7,191.756 km
Eccentricity
0.00531
Inclination
82.7797°
RAAN
76.6041°
Arg. of periapsis
0.7958°
True anomaly
28.56865°
Mean anomaly
28.2785°
Eccentric anomaly
28.4234°
Mean motion
3.5587 °/min
Orbital period
101.16 mins
BSTAR
0.0026614
Loading maneuver chart data...
Computing Atmospheric mass density...

Documentation

Showing up to 5 results
|